Starlink 3389

operational
NORAD ID: 51124 Int'l Des: 2022-005 Owner: SPXS Country: US Constellation: starlink
LEOCIRCULAR

Über Starlink 3389

Beschreibung wird geladen...

Live-Position

3D-Globus wird geladen...

Nächste Überflüge

Höhenverlauf

Altitude vs Time

uPlot chart will show altitude changes over time

Zweizeiliger Elementsatz

1 51124U 22005W 26036.17057751 .00000067 00000-0 22305-4 0 9991
2 51124 53.2190 85.1069 0001372 95.4072 264.7076 15.08832394223837
Epoch: 5. Feb. 2026 • Age: 11 hours

Aktueller Status

Höhe 549.0 km
Geschwindigkeit 7.59 km/s
Subsatellitenpunkt -28.58°S, 57.47°E
Startdatum 19. Jan. 2022
Alter 4 years
Typ internet

Technische Details

Klassifizierung Payload
Masse 297.00 kg
Trockenmasse 275.00 kg
Gesamtmasse 297.00 kg
Länge 0.20 m
Durchmesser 2.80 m
Spannweite 9.00 m
Form Box + pan
Hersteller SPXS
Bus-Typ Starlink
Phasenstatus In Orbit
Besitzer/Staat SPXS/US

Große Konstellationen

Loading constellations...